BAW91J EDDB-EGLL

Flight info

Callsign BAW91J
Flight time 1h 28m
Altitude 38000
Route SUKIP4N SUKIP Y206 BUREL P203 HLZ L980 ROBEG DCT ABNED L980 LOGAN LOGAN2H
Aircraft A320/M-SDE3FGHIJ1RWXY/SB1

Departure

Time 2026-05-04 12:47
Airport Berlin Brandenburg Airport (EDDB)

Arrival

Time 2026-05-04 14:16
Airport London Heathrow Airport (EGLL)
Time Latitude Longitude Altitude Speed Heading
2026-05-04 12:00 52.36321 13.50636 155 ft 0 kts 69°
2026-05-04 12:38 52.36315 13.50609 155 ft 4 kts 69°
2026-05-04 12:38 52.36305 13.50568 155 ft 3 kts 69°
2026-05-04 12:38 52.36298 13.50533 155 ft 4 kts 86°
2026-05-04 12:38 52.36303 13.50494 155 ft 4 kts 135°
2026-05-04 12:39 52.36325 13.50473 155 ft 4 kts 163°
2026-05-04 12:39 52.36341 13.50465 155 ft 0 kts 159°
2026-05-04 12:42 52.36337 13.50468 155 ft 2 kts 159°
2026-05-04 12:42 52.36317 13.50480 155 ft 4 kts 159°
2026-05-04 12:42 52.36281 13.50503 155 ft 7 kts 159°
2026-05-04 12:43 52.36234 13.50533 155 ft 8 kts 159°
2026-05-04 12:43 52.36172 13.50572 155 ft 11 kts 158°
2026-05-04 12:43 52.36092 13.50624 155 ft 14 kts 158°
2026-05-04 12:43 52.35994 13.50686 155 ft 16 kts 159°
2026-05-04 12:44 52.35878 13.50758 155 ft 19 kts 160°
2026-05-04 12:44 52.35778 13.50821 155 ft 13 kts 158°
2026-05-04 12:44 52.35753 13.50951 155 ft 15 kts 68°
2026-05-04 12:44 52.35795 13.51124 155 ft 18 kts 68°
2026-05-04 12:45 52.35843 13.51323 155 ft 20 kts 69°
2026-05-04 12:45 52.35897 13.51547 155 ft 22 kts 68°
2026-05-04 12:45 52.35956 13.51800 155 ft 25 kts 70°
2026-05-04 12:45 52.36016 13.52057 155 ft 10 kts 70°
2026-05-04 12:46 52.36018 13.52166 155 ft 11 kts 132°
2026-05-04 12:46 52.35940 13.52221 155 ft 14 kts 159°
2026-05-04 12:46 52.35843 13.52250 155 ft 16 kts 199°
2026-05-04 12:46 52.35775 13.52039 155 ft 43 kts 249°
2026-05-04 12:47 52.35579 13.51212 155 ft 109 kts 249°
2026-05-04 12:47 52.35240 13.49787 199 ft 154 kts 249°
2026-05-04 12:47 52.34839 13.48211 840 ft 149 kts 249°
2026-05-04 12:47 52.34441 13.46621 1416 ft 151 kts 249°
2026-05-04 12:48 52.34155 13.45528 1637 ft 166 kts 241°
2026-05-04 12:48 52.33099 13.43460 2111 ft 192 kts 229°
2026-05-04 12:48 52.32142 13.41733 2537 ft 215 kts 230°
2026-05-04 12:48 52.31150 13.39872 3379 ft 219 kts 230°
2026-05-04 12:49 52.30140 13.37971 4245 ft 223 kts 230°
2026-05-04 12:49 52.29452 13.36679 4891 ft 224 kts 230°
2026-05-04 12:49 52.28421 13.34746 5765 ft 227 kts 230°
2026-05-04 12:49 52.27375 13.32790 6668 ft 230 kts 230°
2026-05-04 12:50 52.26327 13.30835 7521 ft 232 kts 230°
2026-05-04 12:50 52.25255 13.28840 8426 ft 234 kts 230°
2026-05-04 12:50 52.24278 13.26711 9280 ft 239 kts 242°
2026-05-04 12:50 52.23568 13.24110 9713 ft 261 kts 248°
2026-05-04 12:51 52.22866 13.21305 10364 ft 270 kts 248°
2026-05-04 12:51 52.22150 13.18434 11133 ft 275 kts 248°
2026-05-04 12:51 52.21425 13.15528 11917 ft 279 kts 248°
2026-05-04 12:51 52.20689 13.12575 12705 ft 283 kts 248°
2026-05-04 12:52 52.19940 13.09582 13468 ft 287 kts 247°
2026-05-04 12:52 52.19175 13.06548 14194 ft 290 kts 247°
2026-05-04 12:52 52.18401 13.03491 14906 ft 293 kts 247°
2026-05-04 12:52 52.17629 13.00446 15624 ft 295 kts 247°
2026-05-04 12:53 52.16841 12.97346 16349 ft 297 kts 247°
2026-05-04 12:53 52.16178 12.94140 16985 ft 303 kts 256°
2026-05-04 12:53 52.15676 12.90678 17124 ft 324 kts 256°
2026-05-04 12:53 52.15159 12.87005 17323 ft 342 kts 256°
2026-05-04 12:54 52.14625 12.83173 17883 ft 347 kts 256°
2026-05-04 12:54 52.14090 12.79314 18512 ft 351 kts 256°
2026-05-04 12:54 52.13576 12.75421 19119 ft 354 kts 260°
2026-05-04 12:54 52.13493 12.71383 19725 ft 360 kts 273°
2026-05-04 12:55 52.14033 12.67369 20337 ft 368 kts 287°
2026-05-04 12:55 52.15198 12.63600 20925 ft 377 kts 301°
2026-05-04 12:55 52.16925 12.60397 21495 ft 387 kts 313°
2026-05-04 12:55 52.18931 12.57447 22068 ft 390 kts 314°
2026-05-04 12:56 52.20951 12.54475 22618 ft 393 kts 313°
2026-05-04 12:56 52.22976 12.51438 23174 ft 394 kts 310°
2026-05-04 12:56 52.24720 12.48008 23672 ft 392 kts 300°
2026-05-04 12:56 52.26043 12.44136 24130 ft 390 kts 290°
2026-05-04 12:57 52.26919 12.39952 24612 ft 388 kts 281°
2026-05-04 12:57 52.27524 12.35653 25085 ft 389 kts 280°
2026-05-04 12:57 52.28127 12.31328 25548 ft 391 kts 279°
2026-05-04 12:57 52.28731 12.26983 25982 ft 393 kts 279°
2026-05-04 12:58 52.29330 12.22677 26416 ft 394 kts 279°
2026-05-04 12:58 52.29948 12.18236 26838 ft 396 kts 279°
2026-05-04 12:58 52.30553 12.13885 27251 ft 398 kts 279°
2026-05-04 12:58 52.31166 12.09466 27672 ft 400 kts 279°
2026-05-04 12:59 52.31779 12.05015 28100 ft 402 kts 279°
2026-05-04 12:59 52.32394 12.00544 28505 ft 404 kts 279°
2026-05-04 12:59 52.33009 11.96052 28944 ft 406 kts 279°
2026-05-04 12:59 52.33627 11.91533 29368 ft 408 kts 279°
2026-05-04 13:00 52.34236 11.86999 29775 ft 409 kts 277°
2026-05-04 13:00 52.34538 11.82387 30141 ft 407 kts 269°
2026-05-04 13:00 52.34632 11.77746 30461 ft 409 kts 269°
2026-05-04 13:00 52.34727 11.73083 30805 ft 410 kts 269°
2026-05-04 13:01 52.34826 11.68425 31288 ft 408 kts 269°
2026-05-04 13:01 52.34926 11.63789 31769 ft 406 kts 269°
2026-05-04 13:01 52.35024 11.59179 32248 ft 404 kts 269°
2026-05-04 13:01 52.35117 11.54592 32728 ft 402 kts 269°
2026-05-04 13:02 52.35205 11.50031 33208 ft 400 kts 269°
2026-05-04 13:02 52.35291 11.45477 33719 ft 399 kts 269°
2026-05-04 13:02 52.35373 11.40963 34198 ft 396 kts 268°
2026-05-04 13:02 52.35450 11.36462 34619 ft 395 kts 268°
2026-05-04 13:03 52.35526 11.31978 34980 ft 395 kts 269°
2026-05-04 13:03 52.35603 11.27537 35308 ft 395 kts 269°
2026-05-04 13:03 52.35680 11.23036 35633 ft 395 kts 269°
2026-05-04 13:03 52.35755 11.18528 35950 ft 396 kts 269°
2026-05-04 13:04 52.35830 11.14022 36260 ft 396 kts 269°
2026-05-04 13:04 52.35904 11.09519 36563 ft 396 kts 269°
2026-05-04 13:04 52.35977 11.04997 36863 ft 397 kts 269°
2026-05-04 13:04 52.36050 11.00470 37153 ft 397 kts 269°
2026-05-04 13:05 52.36121 10.95953 37452 ft 397 kts 269°
2026-05-04 13:05 52.36186 10.91438 37728 ft 397 kts 269°
2026-05-04 13:05 52.36245 10.86964 37935 ft 399 kts 269°
2026-05-04 13:06 52.36140 10.77870 37972 ft 398 kts 259°
2026-05-04 13:06 52.35073 10.68993 37975 ft 398 kts 257°
2026-05-04 13:07 52.33996 10.60103 37976 ft 398 kts 257°
2026-05-04 13:07 52.32924 10.51224 37975 ft 398 kts 257°
2026-05-04 13:08 52.31854 10.42396 37995 ft 398 kts 257°
2026-05-04 13:08 52.30754 10.33503 37971 ft 399 kts 257°
2026-05-04 13:09 52.29646 10.24620 37975 ft 399 kts 257°
2026-05-04 13:09 52.28537 10.15734 37982 ft 399 kts 257°
2026-05-04 13:10 52.27433 10.06913 37991 ft 398 kts 257°
2026-05-04 13:10 52.26305 9.98055 37991 ft 398 kts 257°
2026-05-04 13:11 52.25193 9.89184 38010 ft 399 kts 260°
2026-05-04 13:11 52.24859 9.80132 38000 ft 401 kts 265°
2026-05-04 13:12 52.24633 9.71018 37998 ft 401 kts 265°
2026-05-04 13:12 52.24394 9.61968 37995 ft 402 kts 265°
2026-05-04 13:13 52.24137 9.52853 37993 ft 402 kts 265°
2026-05-04 13:13 52.23872 9.43727 37991 ft 402 kts 264°
2026-05-04 13:14 52.23597 9.34611 37989 ft 402 kts 264°
2026-05-04 13:14 52.23314 9.25488 37991 ft 402 kts 264°
2026-05-04 13:15 52.22994 9.16444 37991 ft 402 kts 264°
2026-05-04 13:15 52.22639 9.07346 37991 ft 402 kts 264°
2026-05-04 13:16 52.22277 8.98249 37996 ft 402 kts 264°
2026-05-04 13:16 52.21917 8.89158 38007 ft 402 kts 264°
2026-05-04 13:17 52.21549 8.80046 37996 ft 402 kts 263°
2026-05-04 13:17 52.21170 8.70947 37989 ft 402 kts 263°
2026-05-04 13:18 52.20787 8.61821 37962 ft 403 kts 263°
2026-05-04 13:18 52.20399 8.52770 37967 ft 403 kts 263°
2026-05-04 13:19 52.19997 8.43648 37978 ft 403 kts 263°
2026-05-04 13:19 52.19593 8.34516 37992 ft 404 kts 263°
2026-05-04 13:20 52.19188 8.25365 37993 ft 404 kts 263°
2026-05-04 13:20 52.18771 8.16260 37989 ft 405 kts 263°
2026-05-04 13:21 52.18342 8.07085 37992 ft 405 kts 263°
2026-05-04 13:21 52.17905 7.97912 37992 ft 406 kts 263°
2026-05-04 13:22 52.17463 7.88728 38004 ft 406 kts 263°
2026-05-04 13:22 52.17011 7.79539 37994 ft 407 kts 263°
2026-05-04 13:23 52.16559 7.70397 37990 ft 407 kts 262°
2026-05-04 13:23 52.16095 7.61191 37988 ft 408 kts 262°
2026-05-04 13:24 52.15624 7.51990 37985 ft 408 kts 262°
2026-05-04 13:24 52.15147 7.42786 37997 ft 408 kts 262°
2026-05-04 13:25 52.14411 7.28959 38005 ft 408 kts 262°
2026-05-04 13:25 52.13908 7.19793 38000 ft 409 kts 262°
2026-05-04 13:26 52.13398 7.10549 37999 ft 409 kts 262°
2026-05-04 13:26 52.12888 7.01318 37999 ft 409 kts 262°
2026-05-04 13:27 52.12364 6.92089 37999 ft 409 kts 262°
2026-05-04 13:27 52.11924 6.84408 38008 ft 410 kts 262°
2026-05-04 13:28 52.11299 6.73656 38002 ft 411 kts 262°
2026-05-04 13:28 52.10847 6.65898 37992 ft 410 kts 262°
2026-05-04 13:29 52.10299 6.56715 37992 ft 410 kts 262°
2026-05-04 13:29 52.09739 6.47471 37975 ft 410 kts 262°
2026-05-04 13:30 52.09175 6.38221 37984 ft 411 kts 261°
2026-05-04 13:30 52.08595 6.29005 37976 ft 412 kts 261°
2026-05-04 13:31 52.08003 6.19718 37971 ft 413 kts 261°
2026-05-04 13:31 52.07406 6.10410 37971 ft 413 kts 261°
2026-05-04 13:32 52.06821 6.01172 37967 ft 413 kts 261°
2026-05-04 13:32 52.06222 5.91853 37969 ft 413 kts 261°
2026-05-04 13:33 52.05610 5.82553 37972 ft 414 kts 261°
2026-05-04 13:33 52.04983 5.73223 37964 ft 415 kts 261°
2026-05-04 13:34 52.04356 5.63927 37979 ft 417 kts 261°
2026-05-04 13:34 52.03717 5.54562 37972 ft 416 kts 261°
2026-05-04 13:35 52.02743 5.40541 37978 ft 416 kts 260°
2026-05-04 13:36 52.02085 5.31227 37978 ft 418 kts 260°
2026-05-04 13:36 52.01416 5.21824 37970 ft 419 kts 260°
2026-05-04 13:37 52.00743 5.12463 37975 ft 420 kts 260°
2026-05-04 13:37 52.00057 5.03021 37977 ft 421 kts 260°
2026-05-04 13:38 51.99362 4.93584 37987 ft 421 kts 260°
2026-05-04 13:38 51.98658 4.84147 37997 ft 422 kts 260°
2026-05-04 13:39 51.97946 4.74736 37988 ft 423 kts 260°
2026-05-04 13:39 51.97223 4.65266 38001 ft 423 kts 260°
2026-05-04 13:40 51.96493 4.55770 38004 ft 424 kts 260°
2026-05-04 13:40 51.95752 4.46282 38001 ft 425 kts 260°
2026-05-04 13:41 51.95017 4.37025 38001 ft 425 kts 260°
2026-05-04 13:41 51.94271 4.27508 38003 ft 425 kts 260°
2026-05-04 13:42 51.93133 4.13283 38004 ft 425 kts 259°
2026-05-04 13:42 51.92341 4.03766 38009 ft 425 kts 259°
2026-05-04 13:43 51.91547 3.94249 38011 ft 426 kts 259°
2026-05-04 13:43 51.90756 3.84733 38033 ft 426 kts 259°
2026-05-04 13:44 51.89963 3.75273 38023 ft 427 kts 259°
2026-05-04 13:44 51.89160 3.65734 38029 ft 428 kts 259°
2026-05-04 13:45 51.88350 3.56168 38028 ft 428 kts 259°
2026-05-04 13:45 51.87528 3.46609 38029 ft 428 kts 259°
2026-05-04 13:46 51.86709 3.37249 38045 ft 429 kts 259°
2026-05-04 13:46 51.85862 3.27675 38029 ft 429 kts 259°
2026-05-04 13:47 51.85006 3.18098 38037 ft 430 kts 259°
2026-05-04 13:47 51.84270 3.08499 38034 ft 431 kts 261°
2026-05-04 13:48 51.83693 2.98831 38031 ft 431 kts 262°
2026-05-04 13:48 51.83111 2.89233 38036 ft 431 kts 261°
2026-05-04 13:49 51.82480 2.79565 38029 ft 431 kts 261°
2026-05-04 13:49 51.81821 2.69898 37882 ft 432 kts 261°
2026-05-04 13:50 51.81487 2.65086 37605 ft 431 kts 261°
2026-05-04 13:50 51.81152 2.60271 37335 ft 430 kts 261°
2026-05-04 13:50 51.80821 2.55515 37069 ft 429 kts 261°
2026-05-04 13:50 51.80487 2.50717 36808 ft 428 kts 261°
2026-05-04 13:51 51.80151 2.45922 36159 ft 430 kts 260°
2026-05-04 13:51 51.79815 2.41121 35418 ft 431 kts 260°
2026-05-04 13:51 51.79474 2.36292 34618 ft 433 kts 260°
2026-05-04 13:51 51.79129 2.31444 33778 ft 434 kts 260°
2026-05-04 13:52 51.78429 2.21802 32210 ft 430 kts 259°
2026-05-04 13:52 51.78111 2.17033 31671 ft 425 kts 260°
2026-05-04 13:52 51.77832 2.12289 31105 ft 421 kts 261°
2026-05-04 13:53 51.77573 2.07605 30552 ft 417 kts 261°
2026-05-04 13:53 51.77318 2.02949 29985 ft 414 kts 261°
2026-05-04 13:53 51.77057 1.98338 29386 ft 410 kts 261°
2026-05-04 13:54 51.76517 1.89282 28306 ft 400 kts 261°
2026-05-04 13:54 51.76246 1.84827 27767 ft 396 kts 262°
2026-05-04 13:54 51.75708 1.76100 26733 ft 389 kts 262°
2026-05-04 13:55 51.75437 1.71765 26227 ft 387 kts 262°
2026-05-04 13:55 51.74891 1.63168 25244 ft 382 kts 262°
2026-05-04 13:55 51.74621 1.58902 24728 ft 381 kts 262°
2026-05-04 13:56 51.74352 1.54653 24144 ft 382 kts 263°
2026-05-04 13:56 51.74079 1.50369 23562 ft 383 kts 263°
2026-05-04 13:56 51.73529 1.41873 22365 ft 381 kts 263°
2026-05-04 13:57 51.73253 1.37618 21792 ft 380 kts 263°
2026-05-04 13:57 51.72975 1.33376 21223 ft 380 kts 262°
2026-05-04 13:58 51.72138 1.20709 19521 ft 377 kts 262°
2026-05-04 13:58 51.71573 1.12310 18393 ft 376 kts 262°
2026-05-04 13:58 51.71290 1.08134 17777 ft 374 kts 262°
2026-05-04 13:59 51.71007 1.03976 17218 ft 370 kts 262°
2026-05-04 13:59 51.70725 0.99872 16667 ft 366 kts 262°
2026-05-04 13:59 51.70168 0.91794 15573 ft 360 kts 262°
2026-05-04 14:00 51.69894 0.87799 15017 ft 358 kts 263°
2026-05-04 14:00 51.69347 0.79931 13938 ft 353 kts 263°
2026-05-04 14:00 51.69068 0.76019 13366 ft 349 kts 263°
2026-05-04 14:01 51.68792 0.72147 12827 ft 345 kts 263°
2026-05-04 14:01 51.68520 0.68328 12299 ft 341 kts 263°
2026-05-04 14:01 51.67984 0.60827 11270 ft 333 kts 263°
2026-05-04 14:02 51.67722 0.57171 11036 ft 321 kts 263°
2026-05-04 14:02 51.67471 0.53669 10909 ft 308 kts 263°
2026-05-04 14:02 51.67229 0.50308 10782 ft 297 kts 263°
2026-05-04 14:02 51.66993 0.47049 10572 ft 289 kts 262°
2026-05-04 14:03 51.66759 0.43848 10318 ft 284 kts 262°
2026-05-04 14:03 51.66526 0.40689 9917 ft 285 kts 262°
2026-05-04 14:03 51.66293 0.37576 9615 ft 280 kts 262°
2026-05-04 14:03 51.66059 0.34477 8952 ft 278 kts 262°
2026-05-04 14:04 51.65603 0.28385 7920 ft 272 kts 262°
2026-05-04 14:04 51.65379 0.25404 7449 ft 269 kts 262°
2026-05-04 14:04 51.65156 0.22460 7078 ft 258 kts 262°
2026-05-04 14:05 51.64728 0.16795 7024 ft 240 kts 262°
2026-05-04 14:05 51.64635 0.14147 6924 ft 236 kts 272°
2026-05-04 14:05 51.64731 0.11522 6757 ft 235 kts 272°
2026-05-04 14:06 51.64834 0.08896 6585 ft 235 kts 272°
2026-05-04 14:06 51.64936 0.06274 6415 ft 232 kts 272°
2026-05-04 14:06 51.65035 0.03681 6225 ft 233 kts 272°
2026-05-04 14:06 51.65131 0.01076 6046 ft 232 kts 272°
2026-05-04 14:07 51.65223 -0.01481 5919 ft 231 kts 272°
2026-05-04 14:07 51.65316 -0.04083 5738 ft 234 kts 272°
2026-05-04 14:07 51.65410 -0.06690 5565 ft 233 kts 272°
2026-05-04 14:07 51.65502 -0.09282 5391 ft 233 kts 272°
2026-05-04 14:08 51.65597 -0.11897 5214 ft 234 kts 272°
2026-05-04 14:08 51.65680 -0.14511 5039 ft 233 kts 269°
2026-05-04 14:08 51.65338 -0.17026 4870 ft 231 kts 243°
2026-05-04 14:08 51.64341 -0.19020 4689 ft 231 kts 216°
2026-05-04 14:09 51.61353 -0.20862 4323 ft 233 kts 197°
2026-05-04 14:09 51.59785 -0.21511 4127 ft 230 kts 185°
2026-05-04 14:10 51.56910 -0.20110 3730 ft 214 kts 137°
2026-05-04 14:10 51.55960 -0.18313 3549 ft 209 kts 125°
2026-05-04 14:10 51.55114 -0.16449 3380 ft 203 kts 125°
2026-05-04 14:10 51.54285 -0.14645 3198 ft 198 kts 125°
2026-05-04 14:11 51.53715 -0.13511 3090 ft 194 kts 136°
2026-05-04 14:11 51.50867 -0.13405 3012 ft 193 kts 218°
2026-05-04 14:11 51.50164 -0.14304 3014 ft 194 kts 218°
2026-05-04 14:12 51.49038 -0.15496 3005 ft 193 kts 214°
2026-05-04 14:12 51.48138 -0.17065 3001 ft 193 kts 243°
2026-05-04 14:12 51.47798 -0.21158 2815 ft 184 kts 271°
2026-05-04 14:13 51.47800 -0.23203 2591 ft 183 kts 271°
2026-05-04 14:13 51.47799 -0.25221 2399 ft 178 kts 271°
2026-05-04 14:13 51.47797 -0.27188 2128 ft 177 kts 271°
2026-05-04 14:13 51.47795 -0.29157 1883 ft 175 kts 271°
2026-05-04 14:14 51.47792 -0.31086 1647 ft 170 kts 272°
2026-05-04 14:14 51.47785 -0.34833 1195 ft 167 kts 271°
2026-05-04 14:14 51.47781 -0.36684 962 ft 159 kts 271°
2026-05-04 14:15 51.47766 -0.39979 524 ft 140 kts 272°
2026-05-04 14:15 51.47767 -0.43075 181 ft 137 kts 271°
2026-05-04 14:16 51.47761 -0.45378 86 ft 45 kts 270°
2026-05-04 14:16 51.47758 -0.45711 85 ft 23 kts 263°
2026-05-04 14:17 51.47622 -0.46006 86 ft 14 kts 226°
2026-05-04 14:17 51.47594 -0.46158 88 ft 14 kts 268°
2026-05-04 14:17 51.47592 -0.46484 86 ft 6 kts 270°
2026-05-04 14:18 51.47592 -0.46535 86 ft 4 kts 270°
2026-05-04 14:18 51.47593 -0.46570 86 ft 0 kts 270°
2026-05-04 14:20 51.47593 -0.46589 86 ft 4 kts 270°
2026-05-04 14:20 51.47592 -0.46676 86 ft 12 kts 269°
2026-05-04 14:20 51.47586 -0.46849 86 ft 18 kts 261°
2026-05-04 14:21 51.47581 -0.47330 90 ft 25 kts 270°
2026-05-04 14:21 51.47581 -0.47625 90 ft 28 kts 270°
2026-05-04 14:21 51.47580 -0.47854 90 ft 21 kts 269°
2026-05-04 14:21 51.47578 -0.48101 87 ft 24 kts 270°
2026-05-04 14:22 51.47577 -0.48338 88 ft 12 kts 269°
2026-05-04 14:22 51.47556 -0.48466 88 ft 13 kts 215°
2026-05-04 14:22 51.47459 -0.48474 86 ft 11 kts 180°
2026-05-04 14:22 51.47405 -0.48474 86 ft 5 kts 180°
2026-05-04 14:23 51.47335 -0.48474 86 ft 8 kts 180°
2026-05-04 14:23 51.47272 -0.48473 86 ft 11 kts 179°
2026-05-04 14:23 51.47187 -0.48471 88 ft 14 kts 179°
2026-05-04 14:24 51.47081 -0.48472 90 ft 17 kts 180°
2026-05-04 14:24 51.47048 -0.48523 88 ft 8 kts 270°
2026-05-04 14:24 51.47049 -0.48585 90 ft 3 kts 270°